DW7472 Weather Reports


Display with metric or nautical units.
time (UTC)temp
F
wind
direction
speed
MPH
gust
MPH
rain 1hr
in
rain 24hr
in
rain mn
in
humidity
%
barometer
mb
20260509001513 60 235 0.0 0.0 0.00 0.00 0.00 84 1012.3
20260509000013 61 235 0.0 0.0 0.00 0.00 0.00 82 1012.3
20260508234612 61 235 0.0 0.0 0.00 0.00 0.00 82 1012.3
20260508233108 62 235 0.0 0.0 0.00 0.00 0.00 82 1012.3
20260508231636 63 235 0.0 0.0 0.00 0.00 0.00 79 1012.2
20260508224609 64 235 0.0 0.0 0.00 0.00 0.00 77 1012.3
20260508223058 64 235 0.0 0.0 0.00 0.00 0.00 71 1012.3
20260508221559 65 235 0.0 0.0 0.00 0.00 0.00 70 1012.2
20260508220057 65 235 0.0 2.0 0.00 0.00 0.00 64 1012.2
20260508214636 66 235 0.0 0.0 0.00 0.00 0.00 61 1012.3
20260508213048 68 235 0.0 0.0 0.00 0.00 0.00 58 1012.5
20260508211544 69 235 0.0 0.0 0.00 0.00 0.00 61 1012.2
20260508210041 69 235 0.0 1.0 0.00 0.00 0.00 60 1012.2
20260508204539 68 235 0.0 0.0 0.00 0.00 0.00 62 1012.3
20260508203038 69 235 0.0 3.0 0.00 0.00 0.00 64 1012.3
20260508201537 70 235 0.0 0.0 0.00 0.00 0.00 58 1012.6
20260508200034 69 235 0.0 1.0 0.00 0.00 0.00 62 1012.8
20260508194531 69 235 0.0 6.0 0.00 0.00 0.00 60 1013.3
20260508193017 69 234 1.0 6.0 0.00 0.00 0.00 52 1013.6
20260508191530 69 264 0.0 5.0 0.00 0.00 0.00 51 1013.8
20260508190018 69 90 0.0 6.0 0.00 0.00 0.00 49 1014.1
20260508184511 70 277 1.0 4.0 0.00 0.00 0.00 49 1014.2
20260508183006 69 239 0.0 1.0 0.00 0.00 0.00 52 1014.4
20260508181504 68 240 5.0 7.0 0.00 0.00 0.00 52 1014.6
20260508180003 67 225 2.0 7.0 0.00 0.00 0.00 52 1014.8
20260508174501 68 292 1.0 5.0 0.00 0.00 0.00 56 1014.9
20260508173046 67 240 0.0 4.0 0.00 0.00 0.00 57 1015.2
20260508171545 67 238 0.0 1.0 0.00 0.00 0.00 53 1015.5
20260508170043 67 326 1.0 6.0 0.00 0.00 0.00 53 1015.7
20260508164542 66 242 1.0 5.0 0.00 0.00 0.00 58 1016.2
20260508163039 66 215 0.0 4.0 0.00 0.00 0.00 58 1016.3
20260508161535 65 211 0.0 1.0 0.00 0.00 0.00 54 1016.5
20260508160030 64 209 0.0 1.0 0.00 0.00 0.00 57 1016.7
20260508154527 63 200 0.0 4.0 0.00 0.00 0.00 60 1017.0
20260508153012 62 193 0.0 3.0 0.00 0.00 0.00 59 1017.2
20260508151511 61 191 2.0 5.0 0.00 0.00 0.00 63 1017.4
20260508150018 61 184 1.0 5.0 0.00 0.00 0.00 66 1017.5
20260508144503 59 183 0.0 5.0 0.00 0.00 0.00 71 1017.5
20260508143000 58 180 0.0 4.0 0.00 0.00 0.00 74 1017.7
20260508141557 57 180 1.0 4.0 0.00 0.00 0.00 74 1017.9
20260508140104 55 181 1.0 5.0 0.00 0.00 0.00 82 1018.0
20260508134555 54 192 0.0 5.0 0.00 0.00 0.00 84 1018.1
20260508133028 53 193 1.0 6.0 0.00 0.00 0.00 87 1018.1
20260508131524 52 193 3.0 7.0 0.00 0.00 0.00 90 1018.1
20260508130010 50 196 2.0 4.0 0.00 0.00 0.00 93 1018.3
20260508124506 49 196 0.0 4.0 0.00 0.00 0.00 96 1018.5
20260508123007 48 196 0.0 4.0 0.00 0.00 0.00 99 1018.3
20260508121600 47 196 0.0 4.0 0.00 0.00 0.00 99 1018.3
20260508120057 47 193 0.0 4.0 0.00 0.00 0.00 99 1018.1
20260508114608 46 193 2.0 4.0 0.00 0.00 0.00 99 1018.1
20260508113102 46 193 0.0 0.0 0.00 0.00 0.00 99 1017.7
20260508111602 46 193 0.0 0.0 0.00 0.00 0.00 99 1017.5
20260508110047 46 193 0.0 0.0 0.00 0.00 0.00 99 1017.2
20260508104544 46 193 0.0 1.0 0.00 0.00 0.00 99 1017.0
20260508103042 46 194 1.0 3.0 0.00 0.00 0.00 99 1016.9
20260508101539 47 198 0.0 0.0 0.00 0.00 0.00 99 1016.8
20260508100036 47 198 0.0 3.0 0.00 0.00 0.00 99 1016.6
20260508094535 48 198 0.0 0.0 0.00 0.00 0.00 99 1016.4
20260508093018 48 198 0.0 3.0 0.00 0.00 0.00 100 1016.4
20260508091521 48 200 0.0 0.0 0.00 0.00 0.00 100 1016.4
20260508090105 48 337 0.0 1.0 0.00 0.00 0.00 100 1016.2
20260508084556 49 337 0.0 0.0 0.00 0.00 0.00 100 1016.2
20260508083049 49 337 0.0 0.0 0.00 0.00 0.00 100 1016.2
20260508081547 49 337 0.0 0.0 0.00 0.00 0.00 100 1015.9
20260508080040 50 337 0.0 0.0 0.00 0.00 0.00 100 1016.0
20260508074542 50 337 0.0 0.0 0.00 0.00 0.00 100 1015.9
20260508073039 50 337 0.0 0.0 0.00 0.00 0.00 100 1016.1
20260508071538 50 337 0.0 0.0 0.00 0.00 0.00 100 1016.0
20260508070038 50 337 0.0 0.0 0.00 0.00 0.00 100 1016.0
20260508064539 50 337 0.0 0.0 0.00 0.00 0.00 100 1016.1
20260508063024 50 337 0.0 0.0 0.00 0.00 0.00 100 1015.8
20260508061527 50 337 0.0 0.0 0.00 0.00 0.00 100 1016.0
20260508060024 50 337 0.0 0.0 0.00 0.00 0.00 100 1016.1
20260508054523 50 337 0.0 0.0 0.00 0.00 0.00 100 1016.0
20260508053021 50 337 0.0 0.0 0.00 0.00 0.00 100 1016.1
20260508051529 50 337 0.0 0.0 0.00 0.00 0.00 100 1016.0
20260508050019 50 337 0.0 0.0 0.00 0.00 0.00 100 1016.0
20260508044517 50 337 0.0 0.0 0.00 0.00 0.00 100 1015.8
20260508043007 50 337 0.0 0.0 0.00 0.00 0.00 100 1015.7
20260508041502 50 337 0.0 0.0 0.00 0.00 0.00 100 1015.4
20260508040001 50 337 0.0 0.0 0.00 0.00 0.00 100 1015.4
20260508034501 50 337 0.0 0.0 0.00 0.00 0.00 100 1015.3
20260508033103 50 337 0.0 0.0 0.00 0.00 0.00 100 1015.3
20260508031603 50 337 0.0 0.0 0.00 0.00 0.00 100 1015.4
20260508030058 50 337 0.0 0.0 0.00 0.00 0.00 100 1015.3
20260508024604 50 337 0.0 0.0 0.00 0.00 0.00 100 1015.3
20260508023057 51 337 0.0 0.0 0.00 0.00 0.00 100 1015.1
20260508021543 51 337 0.0 0.0 0.00 0.00 0.00 100 1014.7
20260508020041 51 337 0.0 0.0 0.00 0.00 0.00 99 1014.4
20260508014537 52 337 0.0 0.0 0.00 0.00 0.00 99 1014.3
20260508013037 52 337 0.0 0.0 0.00 0.00 0.00 99 1014.0
20260508011533 53 337 0.0 0.0 0.00 0.00 0.00 99 1013.8
20260508010032 53 337 0.0 0.0 0.00 0.00 0.00 99 1013.6
20260508004527 53 337 0.0 0.0 0.00 0.00 0.00 99 1013.3
20260508003024 54 337 0.0 0.0 0.00 0.00 0.00 99 1013.1